Back to catalog

FLOCK 4BE 28

AliveScienceSSO
NORAD 60519·PAYLOAD·🇺🇸 United States

Launched Aug 16, 2024 from Vandenberg Space Force Base

Loading…

Next Passes (next 24 hours)

TLE

FreshSource: CelesTrak SupGP

Epoch: Sep 14, 2026, 06:45 UTC

1 60519C 24149AB  26257.28133102  .00021084  00000+0  37862-3 0  2573
2 60519  97.3700 344.7315 0002769 352.5879 240.2572 15.49894724    15

Track FLOCK 4BE 28 in real time with AllMySat

Download on the App Store